Volver al catálogo

ONEWEB-0101

ActivoComunicacionesPO
NORAD 48049·PAYLOAD·🇬🇧 United Kingdom

Lanzado Mar 25, 2021 desde Vostochny Cosmodrome

Loading…

Próximos Pases (próximas 24 horas)

TLE

ActualizadoSource: CelesTrak SupGP

Época: Sep 14, 2026, 17:41 UTC

1 48049C 21025H   26257.73733056 -.00001045  00000+0 -28642-2 0  2573
2 48049  87.8922 302.4076 0001831  92.4564 309.7950 13.13473720    13

Sigue ONEWEB-0101 en tiempo real con AllMySat

Download on the App Store